Dewpoint
-25 -26 -26 -27 -28 -28 -29 -29 -29 -30 -30 -30 -26 -13 -9 -1 -1 -4 -11 -13 -11 -8 -3 -6 9 10 15 17 16 14 15 18 16 16 14 14 15 15 15 15 15 15 13 12 11
-25 -25 -26 -27 -28 -28 -29 -29 -29 -28 -29 -30 -28 -17 -9 -6 -1 -1 -10 -13 -13 -11 -6 -5 6 14 16 16 16 16 17 16 14 13 14 13 14 15 15 15 15 14 12 12 9
-25 -25 -26 -27 -28 -28 -28 -28 -28 -28 -25 -25 -24 -15 -7 -6 -2 -3 -5 -13 -14 -11 -9 -3 -3 8 8 14 15 16 16 14 12 13 11 10 15 15 15 16 15 15 15 15 12
-26 -26 -27 -28 -28 -28 -27 -25 -20 -10 -13 -25 -19 -16 -4 -6 1 -4 -8 -7 -14 -10 -8 -3 6 4 5 10 12 14 15 13 11 11 12 10 11 15 15 15 15 14 15 15 13
-26 -26 -27 -28 -28 -26 -22 -15 -10 -8 -8 -10 -14 -13 -2 -5 -6 -2 -7 -7 -12 -7 -7 -7 -1 1 5 7 9 11 11 12 11 10 9 9 10 14 15 15 15 15 15 15 14
-23 -24 -25 -26 -27 -25 -12 -8 -5 -6 -9 -7 -7 -4 -2 1 -7 -2 -2 -5 -9 -9 -7 -7 -1 2 3 4 9 10 10 10 9 8 9 9 11 14 15 16 15 15 15 15 15
-20 -21 -23 -24 -26 -23 -9 -10 -11 -12 -9 -8 -5 -1 -0 -20 -9 -0 -1 -3 -8 -8 -8 -9 0 1 1 6 5 7 10 10 9 8 9 9 11 16 15 15 15 16 15 15 15
-18 -20 -21 -23 -25 -19 -8 -8 -11 -3 -1 2 2 2 -3 -23 -8 -4 -0 -0 -2 -6 -8 -10 -4 -1 -0 0 -1 6 8 12 10 9 9 9 13 15 15 15 15 15 15 15 15
-15 -17 -19 -21 -24 -10 -7 -8 -12 -2 -5 -8 5 6 1 -8 -2 -2 -1 1 0 -5 -7 -8 -6 -3 -2 -2 0 4 8 9 11 9 9 9 12 15 15 15 15 15 15 15 15
-10 -12 -13 -17 -22 -14 -6 -7 -17 -10 0 -6 6 6 -5 -5 -0 0 0 1 0 -2 -3 -5 -5 -2 -2 0 4 6 9 8 8 6 9 10 13 15 15 15 15 15 14 15 15
-8 -10 -12 -15 -21 -12 -5 -11 -11 -12 -12 -12 -12 -5 -10 -13 -7 -1 0 -1 1 -1 0 -1 -0 1 -1 -2 -0 4 6 8 6 4 5 8 13 15 14 14 15 15 15 15 15
-7 -8 -10 -14 -19 -9 -5 -9 -10 -11 -11 -13 -11 -11 -11 -12 -10 -6 -1 -2 -1 0 -1 2 2 -1 -0 -3 -1 1 2 7 6 5 3 5 13 13 13 14 14 15 15 15 15
-7 -6 -8 -12 -16 -14 -10 -12 -11 -10 -11 -11 -10 -10 -10 -10 -10 -10 -5 -1 -1 -1 -1 2 2 0 0 -0 -1 0 1 2 7 5 2 4 10 13 12 13 13 14 14 14 14
-9 -7 -7 -10 -14 -9 -11 -11 -10 -9 -7 -7 -9 -9 -11 -10 -10 -8 -12 -4 -2 -3 -3 -0 -0 1 2 1 -2 0 -2 -0 3 5 8 1 8 14 14 14 13 13 14 14 14
-17 -8 -7 -10 -10 -9 -10 -10 -9 -9 -9 -8 -10 -11 -13 -10 -8 -7 -6 -7 -2 -2 -4 -0 0 2 2 2 -0 -1 -2 -1 2 4 5 5 5 10 14 15 13 12 12 13 14
-16 -8 -6 -8 -8 -8 -8 -9 -9 -7 -3 -9 -12 -12 -12 -11 -10 -7 -6 -4 -5 -3 -3 -3 -0 1 2 1 1 -0 1 1 2 2 6 5 3 4 15 14 13 12 11 11 12
-17 -12 -4 -5 -6 -7 -7 -7 -7 -7 -10 -9 -10 -12 -12 -12 -10 -7 -5 -3 2 -0 -1 -2 -2 -0 2 4 2 2 3 6 6 4 5 2 1 1 7 12 12 12 12 12 11
-19 -5 -3 -5 -6 -6 -6 -7 -3 -8 -10 -12 -11 -12 -12 -8 -6 -7 -4 -2 2 4 4 -1 0 -1 -0 3 5 3 2 5 7 4 3 -3 -0 -1 -3 3 9 11 13 12 11
-17 -3 -4 -5 -6 -6 -5 -3 -5 -8 -9 -8 -9 -7 -8 -7 -3 -5 -4 -0 2 3 6 6 -1 -1 -1 1 1 3 4 -2 -4 -4 -2 -3 -5 -7 -7 -7 -1 7 11 11 11
-14 -3 -2 -3 -5 -7 -6 -3 -5 -8 -9 -8 -4 -5 -5 -4 -2 -2 -3 -3 2 1 1 4 5 -2 -1 -2 0 -2 -3 -0 -3 -0 -0 -2 -4 -2 -6 -7 -8 -2 8 9 11
-9 0 -1 -3 -5 -7 -5 -5 -9 -10 -7 -5 -4 -3 -6 -7 -8 -2 -4 -4 -0 1 1 2 3 2 -5 -2 2 2 -2 -4 -4 -3 -1 -1 -2 -8 -6 -6 -7 -6 5 9 11
-4 2 -2 -4 -6 -6 -4 -6 -8 -9 -6 -6 -7 -6 -6 -4 -3 -3 -1 1 2 2 3 2 6 7 2 -5 -6 2 -2 -5 -3 -3 -3 -2 -4 -4 -6 -7 -8 -9 -3 9 10
0 2 -2 -2 -1 -1 -3 -2 -5 -3 -4 -4 -4 -4 -4 -3 -0 2 2 -1 1 2 4 5 7 7 3 -3 -6 -5 -0 -5 -6 -5 -2 -3 -3 -5 -4 -2 -2 -5 -8 -2 9
2 -0 -1 -1 -1 0 1 0 -1 -3 -4 -4 -3 -4 -3 -2 -1 -0 1 0 -0 -0 2 4 3 5 7 4 2 -1 -4 -2 -5 -3 -4 -4 -4 -4 -4 -1 -2 -6 -5 -5 7
0 0 1 1 0 1 1 0 -0 -0 -1 -3 -5 -4 -2 -1 -1 -1 -2 -3 -3 -1 2 3 4 1 -0 -0 1 3 1 -2 -5 -5 -3 -4 -3 -4 -2 2 0 -2 -3 -1 8
1 1 1 1 1 1 0 0 2 2 1 0 2 1 -4 -2 -1 0 -0 -1 -0 -1 1 2 4 1 1 2 4 4 3 3 -5 -6 -3 -4 -3 -6 -2 3 4 5 5 5 6
1 2 2 3 2 3 1 1 1 0 3 1 1 1 -1 -2 -3 -3 -2 -2 -3 0 2 3 1 2 4 4 4 5 4 3 -2 -6 -5 -2 -3 -2 9 11 10 3 3 5 8
Wind_Speed
23 23 23 24 24 24 25 24 23 21 19 16 16 15 14 16 17 21 29 24 17 12 10 19 17 16 19 16 7 4 1 2 4 9 1 6 7 21 8 22 5 6 19 37 51
23 24 24 25 25 25 26 25 24 21 19 18 15 15 15 17 19 27 22 19 19 20 19 26 25 23 13 10 8 3 2 7 8 6 13 3 2 12 11 15 16 25 38 42 49
24 25 25 26 26 26 26 25 24 23 21 20 16 14 15 15 17 8 1 12 26 25 26 20 21 26 15 11 16 12 6 7 8 14 7 4 16 7 23 8 33 42 42 43 43
25 25 25 25 26 27 27 25 25 25 24 20 18 13 12 8 4 5 5 3 28 29 30 24 21 19 9 12 22 8 20 12 9 16 14 8 21 16 13 10 34 51 52 48 48
27 27 27 27 27 27 27 25 25 26 25 23 17 14 9 8 23 9 8 4 26 34 32 33 28 22 9 13 21 14 16 22 18 20 13 9 16 13 11 24 36 39 42 45 44
28 28 28 28 27 26 25 26 27 24 25 25 20 13 9 6 7 9 21 8 17 34 33 32 27 30 11 14 15 9 24 15 13 11 4 11 1 13 22 37 39 39 39 39 41
30 30 29 28 27 25 22 25 28 33 27 18 18 15 14 27 5 4 10 20 13 28 36 35 27 26 13 6 39 26 14 11 21 25 5 17 6 12 38 39 39 36 36 36 37
30 30 29 28 26 24 21 27 31 27 17 15 13 12 13 6 10 25 18 20 16 17 26 30 31 23 13 14 13 7 11 12 17 13 14 19 10 16 38 41 37 36 35 36 35
33 31 30 28 24 21 21 26 32 14 14 23 6 6 15 7 11 11 24 27 20 19 25 23 24 18 9 5 5 3 8 8 17 20 12 12 6 23 33 35 35 38 39 36 34
36 35 31 29 26 19 20 25 28 14 13 18 5 8 10 2 10 9 17 25 27 22 19 20 16 5 9 5 11 5 5 6 10 14 24 21 10 25 39 38 40 41 43 41 39
37 36 33 28 23 18 22 25 33 9 33 24 35 29 46 31 29 16 11 27 26 24 9 19 10 16 23 13 5 6 8 10 9 11 9 24 20 27 38 35 35 39 40 43 43
38 38 39 30 21 13 15 19 20 22 20 32 20 26 34 30 19 22 7 26 17 17 9 4 18 19 6 9 12 13 10 13 14 15 6 5 26 28 25 33 44 40 40 42 39
36 37 40 35 20 13 13 18 19 25 5 19 9 9 12 15 13 30 9 16 6 11 17 20 8 14 15 14 15 14 14 14 9 10 5 4 11 23 25 28 26 32 44 46 49
37 36 39 35 11 19 18 22 18 29 4 7 9 10 26 13 4 26 21 14 8 14 12 16 23 20 19 19 18 16 18 17 15 6 7 5 5 18 21 21 18 33 38 45 45
37 36 35 22 19 19 23 24 25 6 2 6 8 13 27 15 18 26 23 18 15 13 10 20 22 24 21 25 18 18 11 14 18 5 2 16 2 14 28 21 26 24 37 41 46
36 32 27 15 12 20 24 26 8 5 3 5 9 16 18 23 16 24 24 30 14 18 20 14 16 24 26 18 21 9 11 9 10 3 9 20 7 7 22 29 28 26 39 38 43
36 34 23 12 10 20 24 25 5 3 11 8 8 10 8 16 11 14 15 14 9 5 16 15 19 22 13 18 12 15 7 7 7 7 10 13 6 12 19 30 37 34 50 43 43
40 27 11 4 10 17 21 5 6 13 5 6 8 7 9 17 6 17 11 11 17 18 8 16 19 22 18 14 18 13 11 6 13 5 11 5 8 6 15 26 45 52 58 50 44
39 11 9 10 12 13 8 4 1 5 7 9 8 5 6 9 5 10 8 4 11 21 15 9 17 7 24 20 17 13 17 12 6 3 3 4 5 4 11 11 12 39 39 41 46
39 7 8 21 9 10 4 4 3 4 6 6 6 5 6 6 6 10 6 5 7 18 18 6 8 14 25 17 20 17 9 8 4 7 5 6 5 6 9 14 8 12 36 47 49
29 9 11 17 12 5 3 3 4 11 12 5 3 4 5 6 6 4 8 11 16 20 20 11 5 10 2 11 27 6 16 6 6 6 7 4 9 9 10 13 13 12 38 50 51
20 4 19 22 8 4 2 6 11 6 7 2 1 2 2 6 4 4 6 4 16 18 12 8 6 6 12 10 5 21 7 10 9 10 4 5 11 5 11 16 18 24 33 46 58
16 8 17 14 4 4 7 7 5 9 1 2 3 3 1 1 4 2 4 6 8 12 7 9 4 8 8 5 3 6 11 9 6 5 9 12 12 2 11 12 22 33 34 44 52
9 4 9 8 11 3 6 5 9 11 6 4 3 2 3 4 3 3 3 4 8 9 6 12 5 8 7 14 14 7 13 12 10 8 10 14 12 9 12 14 10 11 31 39 43
5 2 2 5 6 11 7 5 10 7 9 13 4 3 4 3 2 1 4 12 10 7 3 4 6 12 19 25 25 23 17 13 16 17 14 12 7 10 9 12 6 12 26 34 39
5 3 3 9 10 8 5 3 9 7 8 7 7 16 6 6 7 4 3 6 6 4 1 2 5 18 22 14 18 13 9 7 16 19 7 9 8 8 5 21 8 14 23 28 36
5 7 6 5 4 3 3 10 15 17 8 11 15 15 6 8 13 20 21 26 12 8 7 6 4 6 6 8 5 5 15 6 11 11 11 8 9 3 10 10 16 17 29 22 30
Wind_Direction
5 2 359 356 355 351 347 344 342 340 335 327 321 311 295 280 270 262 252 240 226 199 161 164 165 166 169 189 186 199 71 204 208 212 61 105 200 166 133 138 154 165 153 155 156
4 1 358 356 354 351 347 345 343 341 335 327 321 308 300 292 281 268 282 251 221 212 188 177 176 173 186 204 190 184 181 223 191 212 117 181 254 136 132 144 119 111 138 148 158
3 359 356 354 352 348 345 343 342 340 336 329 323 310 299 293 301 287 17 218 199 201 195 180 182 182 204 211 215 187 216 218 233 242 261 253 156 123 140 153 154 144 149 158 165
2 359 356 355 353 348 344 340 338 338 332 326 321 311 298 272 248 136 81 103 183 184 180 175 183 186 182 213 221 234 232 242 235 260 271 190 162 160 199 185 168 158 155 160 164
0 357 354 353 351 348 346 343 339 331 328 322 316 306 289 247 250 196 158 111 178 181 185 186 192 197 187 209 236 235 242 231 243 247 241 183 178 165 151 145 148 150 156 162 171
359 355 352 350 349 347 349 348 344 337 334 316 307 305 251 246 310 200 223 215 195 187 192 190 197 192 233 238 208 225 235 255 278 219 229 174 302 127 143 146 147 155 164 167 174
358 355 352 351 349 347 350 357 346 335 319 313 301 295 243 250 235 190 226 223 214 206 193 197 190 195 225 214 241 250 263 204 211 248 178 171 152 156 154 154 156 162 168 174 179
357 355 353 351 350 346 351 351 348 349 9 342 305 280 252 260 256 216 216 212 217 212 217 200 194 214 245 271 316 231 235 216 213 228 252 189 165 165 160 157 161 169 172 178 189
354 353 350 352 350 343 351 349 348 347 356 354 328 302 270 250 260 269 210 207 201 199 211 204 205 225 247 213 314 232 244 232 216 210 213 183 148 163 167 165 166 174 178 185 192
358 351 348 352 350 340 349 348 358 358 330 343 319 309 264 347 315 311 222 206 191 189 196 202 202 179 223 165 212 203 203 218 230 222 224 203 176 161 174 173 175 182 181 185 192
355 352 347 347 349 345 350 0 13 346 309 277 268 267 279 284 296 288 224 189 204 180 179 196 193 206 216 211 230 241 214 247 267 238 211 194 156 171 180 182 182 185 184 187 191
353 352 343 344 345 350 357 27 4 330 304 321 300 272 276 289 291 266 249 191 187 206 170 163 217 219 201 204 210 231 246 250 273 269 195 200 170 175 178 188 188 185 189 188 193
350 350 340 337 342 345 351 352 355 350 300 302 344 2 330 304 232 263 268 225 198 203 199 204 228 202 204 225 216 222 227 245 230 284 298 222 162 179 197 183 191 193 192 190 189
346 343 340 333 354 353 354 346 355 338 27 278 5 8 359 331 255 311 270 246 238 216 215 223 227 199 208 220 207 222 226 240 251 247 250 185 230 185 177 194 207 204 196 196 195
344 344 340 332 348 359 350 354 345 341 331 38 8 1 348 38 356 335 341 225 230 242 182 217 201 217 213 216 203 224 226 232 247 221 259 270 207 196 179 193 204 211 212 197 197
346 344 341 339 13 0 355 349 358 45 265 20 37 348 0 14 356 352 5 2 244 234 250 226 228 207 224 222 223 201 214 247 250 191 242 251 169 242 184 189 208 208 219 209 197
345 344 333 331 342 358 347 349 50 109 340 3 353 355 30 350 343 14 7 17 13 280 230 233 238 241 210 218 213 215 152 228 247 226 231 241 175 234 188 204 197 197 214 216 201
347 349 5 73 360 354 341 34 72 344 43 322 354 354 22 4 5 356 13 15 23 15 316 216 234 221 213 211 206 212 190 163 216 204 232 196 209 237 232 194 210 207 204 205 204
352 30 63 23 343 332 336 23 168 355 338 342 359 18 356 11 326 2 7 100 40 33 8 331 233 227 224 215 191 202 212 184 134 228 150 239 255 253 236 243 176 198 204 211 200
348 355 51 355 338 305 77 232 267 67 3 13 33 13 340 358 24 9 350 35 19 16 10 314 290 235 234 225 223 203 154 190 183 217 249 263 233 213 210 245 215 177 190 200 204
350 343 354 1 352 349 108 267 344 24 46 62 343 291 310 359 326 16 344 337 9 350 356 327 287 303 331 217 213 190 206 193 155 154 198 246 260 222 220 232 243 199 187 192 196
351 345 340 342 45 19 37 330 329 359 55 24 258 302 5 338 347 353 341 339 17 18 344 328 291 290 245 253 325 223 196 188 206 215 192 170 258 182 201 230 228 239 185 188 192
341 299 338 43 55 336 322 324 332 344 50 9 287 52 207 332 335 41 5 345 3 29 17 347 352 314 312 22 282 205 222 190 166 134 202 216 247 258 297 302 233 229 197 186 192
341 346 334 24 22 360 350 291 332 325 291 240 238 337 333 14 183 292 296 26 324 327 336 352 260 252 282 303 316 283 228 223 181 193 202 222 252 290 286 288 284 177 182 190 181
357 2 25 323 335 327 306 276 322 351 10 339 308 284 219 280 286 271 356 311 308 318 51 338 266 278 275 276 273 258 259 219 204 202 198 216 200 254 266 283 243 163 173 180 175
312 331 321 285 290 310 298 312 349 339 336 296 348 325 307 198 217 217 235 245 247 267 329 225 275 305 294 256 227 232 234 275 206 207 167 175 213 236 275 318 93 127 141 167 174
266 291 274 266 281 314 297 335 314 313 297 302 327 309 297 268 228 240 244 252 242 195 172 183 264 320 267 323 167 62 351 322 203 186 200 181 218 168 53 23 27 28 94 108 171
Height
1524 1521 1517 1513 1510 1506 1503 1499 1496 1494 1491 1489 1486 1484 1482 1481 1481 1479 1474 1480 1486 1490 1492 1496 1500 1503 1507 1508 1509 1509 1513 1514 1509 1509 1502 1497 1500 1500 1497 1500 1504 1506 1506 1513 1523
1523 1520 1516 1512 1508 1504 1500 1496 1493 1490 1488 1485 1484 1481 1479 1477 1475 1471 1470 1475 1481 1485 1490 1492 1496 1501 1505 1505 1508 1507 1511 1505 1495 1496 1498 1499 1500 1497 1499 1503 1507 1507 1512 1521 1527
1523 1519 1515 1510 1506 1502 1498 1494 1491 1488 1485 1482 1480 1478 1476 1475 1473 1463 1463 1465 1473 1480 1487 1491 1496 1500 1503 1503 1503 1502 1504 1494 1493 1488 1490 1493 1499 1501 1499 1507 1498 1501 1512 1521 1527
1522 1518 1514 1509 1505 1500 1496 1492 1489 1485 1481 1479 1477 1475 1474 1474 1473 1462 1462 1463 1467 1476 1484 1488 1494 1498 1500 1499 1494 1498 1491 1491 1489 1484 1487 1487 1489 1495 1494 1491 1497 1497 1505 1517 1526
1522 1517 1513 1508 1504 1499 1494 1490 1486 1483 1479 1475 1474 1472 1472 1472 1459 1461 1462 1463 1465 1472 1476 1482 1487 1491 1493 1491 1493 1492 1487 1487 1489 1488 1487 1485 1483 1485 1495 1496 1502 1510 1514 1519 1526
1521 1516 1511 1507 1502 1497 1493 1488 1484 1479 1475 1471 1469 1469 1470 1470 1455 1456 1459 1463 1464 1468 1474 1479 1480 1485 1488 1486 1489 1481 1484 1485 1482 1480 1480 1483 1488 1485 1499 1498 1504 1511 1517 1521 1525
1520 1515 1510 1506 1501 1496 1492 1487 1482 1476 1470 1467 1465 1464 1464 1452 1454 1455 1456 1460 1463 1464 1468 1473 1479 1484 1482 1484 1478 1480 1486 1480 1477 1473 1484 1487 1492 1495 1493 1499 1504 1511 1516 1523 1525
1520 1514 1509 1504 1500 1494 1490 1486 1480 1472 1467 1465 1462 1459 1452 1448 1448 1449 1452 1456 1460 1463 1466 1471 1477 1481 1481 1479 1476 1480 1481 1491 1475 1474 1475 1483 1495 1496 1496 1497 1504 1512 1517 1521 1523
1518 1513 1507 1503 1498 1493 1489 1484 1478 1472 1468 1464 1462 1460 1445 1444 1444 1447 1448 1451 1457 1462 1466 1472 1478 1479 1480 1484 1490 1480 1493 1485 1477 1470 1469 1481 1490 1493 1502 1501 1503 1508 1511 1518 1522
1516 1510 1505 1500 1496 1491 1487 1482 1476 1471 1467 1463 1463 1462 1444 1444 1443 1442 1448 1451 1455 1459 1467 1471 1474 1476 1476 1484 1492 1489 1487 1478 1477 1464 1464 1476 1482 1485 1493 1494 1495 1501 1503 1508 1514
1515 1508 1503 1498 1494 1490 1485 1479 1477 1475 1468 1469 1459 1457 1444 1445 1444 1438 1444 1448 1453 1456 1460 1460 1470 1470 1460 1468 1470 1472 1476 1477 1461 1454 1461 1463 1475 1482 1486 1492 1492 1496 1500 1501 1504
1513 1507 1500 1497 1493 1490 1487 1487 1490 1491 1465 1453 1450 1450 1448 1448 1447 1435 1439 1442 1446 1449 1452 1460 1459 1450 1458 1462 1467 1468 1474 1472 1460 1450 1459 1460 1473 1474 1478 1476 1477 1486 1491 1492 1501
1512 1507 1499 1493 1490 1489 1488 1487 1485 1482 1475 1451 1449 1447 1444 1442 1443 1433 1440 1438 1437 1444 1445 1449 1440 1448 1453 1457 1462 1463 1470 1467 1469 1453 1453 1456 1475 1479 1474 1478 1483 1483 1480 1481 1483
1511 1505 1498 1489 1490 1487 1486 1484 1481 1480 1485 1462 1452 1450 1447 1442 1442 1437 1437 1442 1435 1437 1442 1442 1439 1440 1447 1450 1451 1466 1450 1456 1460 1469 1485 1451 1486 1474 1472 1476 1478 1477 1475 1475 1480
1509 1503 1496 1489 1490 1488 1485 1479 1476 1477 1488 1455 1458 1455 1452 1451 1449 1433 1434 1432 1431 1431 1433 1426 1431 1437 1442 1436 1440 1446 1448 1453 1454 1467 1471 1459 1481 1468 1465 1475 1467 1469 1471 1469 1473
1507 1501 1495 1491 1490 1487 1481 1477 1475 1487 1484 1461 1462 1458 1450 1451 1449 1442 1438 1431 1423 1428 1422 1422 1422 1424 1425 1428 1434 1438 1447 1451 1452 1465 1486 1458 1471 1464 1462 1455 1454 1461 1461 1463 1466
1503 1497 1491 1491 1490 1486 1481 1477 1488 1492 1464 1469 1468 1462 1461 1457 1450 1449 1448 1452 1463 1441 1428 1425 1420 1418 1420 1431 1431 1438 1454 1482 1484 1482 1481 1448 1470 1449 1442 1438 1432 1441 1449 1451 1455
1500 1492 1489 1490 1489 1485 1482 1482 1491 1480 1478 1472 1471 1467 1468 1460 1457 1454 1453 1460 1459 1456 1445 1427 1433 1410 1407 1417 1428 1434 1445 1476 1489 1491 1470 1451 1466 1446 1418 1423 1425 1430 1425 1437 1446
1498 1492 1492 1492 1489 1486 1485 1499 1490 1483 1480 1478 1471 1474 1474 1467 1467 1463 1464 1463 1469 1474 1484 1465 1414 1398 1400 1403 1410 1424 1433 1434 1462 1460 1472 1451 1435 1422 1414 1411 1420 1424 1434 1439 1439
1497 1492 1491 1489 1486 1485 1488 1493 1486 1479 1478 1479 1486 1481 1482 1474 1472 1472 1465 1462 1468 1475 1481 1473 1456 1394 1391 1397 1399 1404 1414 1441 1453 1472 1475 1451 1441 1439 1418 1410 1408 1416 1421 1425 1435
1498 1492 1491 1487 1484 1483 1494 1491 1482 1479 1478 1482 1484 1484 1480 1479 1473 1472 1469 1466 1468 1467 1476 1476 1465 1416 1397 1396 1394 1407 1408 1415 1428 1453 1468 1470 1433 1397 1406 1402 1401 1402 1406 1412 1422
1501 1498 1490 1485 1485 1487 1492 1488 1484 1481 1479 1479 1478 1478 1479 1479 1474 1472 1471 1472 1471 1474 1477 1476 1468 1456 1409 1385 1387 1389 1406 1412 1426 1448 1447 1450 1421 1385 1390 1389 1389 1388 1396 1402 1408
1507 1500 1493 1488 1501 1500 1492 1488 1484 1483 1480 1478 1479 1476 1476 1476 1479 1475 1473 1472 1474 1474 1483 1485 1468 1465 1414 1399 1389 1397 1392 1396 1409 1418 1437 1439 1416 1382 1379 1376 1376 1369 1377 1389 1400
1510 1508 1498 1496 1502 1503 1500 1490 1487 1481 1478 1477 1475 1474 1474 1476 1474 1474 1473 1471 1474 1479 1483 1490 1485 1472 1453 1431 1423 1403 1389 1387 1398 1418 1417 1415 1405 1393 1384 1378 1365 1359 1368 1377 1388
1513 1511 1510 1508 1501 1502 1501 1492 1485 1483 1481 1479 1476 1476 1476 1479 1475 1473 1471 1473 1475 1478 1482 1490 1481 1464 1449 1431 1419 1407 1392 1381 1390 1387 1405 1402 1405 1392 1386 1376 1365 1363 1368 1374 1384
1514 1513 1511 1507 1505 1502 1495 1490 1488 1486 1487 1481 1482 1479 1476 1477 1475 1474 1473 1473 1472 1477 1479 1484 1474 1462 1434 1399 1394 1391 1376 1375 1375 1378 1390 1396 1399 1379 1379 1381 1366 1364 1367 1371 1379
1512 1511 1511 1505 1503 1503 1496 1493 1489 1486 1483 1481 1481 1478 1472 1469 1466 1462 1463 1463 1465 1467 1472 1477 1471 1466 1436 1400 1381 1392 1395 1374 1366 1372 1380 1400 1390 1379 1388 1390 1381 1376 1369 1373 1379